sat.trackr.live / text

‹ back to catalog

WEILAI 1R

NORAD 44884 · 2019-093F

PAYLOAD ACTIVE UNKNOWN

§ Identity

Operator
Country
PRC
Launch date
2019-12-20
Launch site
TAISC
Launch vehicle
Mass (kg)
RCS (m²)

External: N2YO · Heavens-Above · Gunter

§ Orbital elements

Epoch: 2026-09-14T22:02:12.848928Z

Period
95.92 min
Inclination
97.7916°
Eccentricity
0.0017264
Mean motion
15.01299397 rev/d
Perigee alt
550.9 km
Apogee alt
574.9 km
Semi-major
6,941.0 km
B*
2.1784e-4
RAAN
348.0226°
Arg perigee
88.5577°
Mean anomaly
271.7625°
Rev number
36,588

§ Raw data

WEILAI 1R1 44884U 19093F   26257.91820427  .00002749  00000+0  21784-3 0  99912 44884  97.7916 348.0226 0017264  88.5577 271.7625 15.01299397365880

JSON: /api/v1/satellites/44884 · /tle

For live sub-satellite position, see the globe view (requires WebGL).

§ Visibility from observer

Set your observer location to see the next 7 days of passes ≥ 10°. The values pass through the URL so the page stays shareable.

No JS? Fill the form by hand. The geolocation button needs JavaScript.

§ Radio — SatNOGS DB

ModeDescriptionDownlinkUplink
FM Mode U 401.546 MHz

1 transmitter · refreshed weekly from db.satnogs.org